Guayaquil, Ecuador

3:29 AM -05 en Junio 19, 2018 (GMT -0500)
Jose Joaquin de Olmedo

Tiempo Historia de SEGU - Marzo, 2018

Change the Weather History Date:

Martes, Marzo 13, 2018

  Actual Average Record
Temperature  
Temperatura media 84 ° F -  
Temperatura máxima 90 ° F 84 ° F 91 ° F (1998)
Temperatura mínima 77 ° F 73 ° F 37 ° F (2007)
Cooling Degree Days 18    
Growing Degree Days 34 (Base 50)    
Moisture  
Punto de rocío 73 ° F    
Average Humidity 69    
Maximum Humidity 89    
Minimum Humidity 50    
Precipitación  
Precipitación 0.00 pul 0.27 pul - ()
Presión al nivel del mar  
Presión al nivel del mar 29.80 pul    
Viento  
Velocidad del viento 5 mph ()    
Velocidad máxima del viento 9 mph    
Max Gust Speed -    
Visibilidad 6.6 Millas    
Eventos      
Averages and records for this station are not official NWS values.
T = Trace of Precipitation, MM = Missing Value Source: Averaged Metar Reports

Daily Weather History Graph

Daily Weather History Graph

Search for Another Location

Airport or City:

Astronomía

Mar. 13, 2018 Salida Puesta
Hora real 6:25 AM -05 6:32 PM -05
Crepúsculo civil 6:04 AM -05 6:53 PM -05
Crepúsculo náutico 5:40 AM -05 7:17 PM -05
Crepúsculo astronómico 5:16 AM -05 7:41 PM -05
Luna 3:20 AM -05 (3/13) 3:49 PM -05 (3/13)
Horas de luz 12h 48m
Horas de luz
12h 07m
Creciente menguante, 14% of the Moon is Illuminated
Mar 13
Creciente menguante
Mar 17
Nueva
Mar 24
Cuarto creciente
Mar 31
Luna llena
Abr 8
Cuarto menguante

Hourly Weather History & Observations

Hora (-05) Temp. Índice de calor Punto de rocío Humedad Presión Visibilidad Wind Dir Velocidad del viento Velocidad de ráfagas Precip Eventos Condiciones
12:00 AM 82.4 ° F 86.3 ° F 69.8 ° F 66% 29.83 pul 6.2 mi Oeste 5.8 mph - N/A   Muy nublado
1:00 AM 80.6 ° F 83.9 ° F 69.8 ° F 70% 29.83 pul 6.2 mi SSO 4.6 mph - N/A   Muy nublado
2:00 AM 78.8 ° F - 71.6 ° F 78% 29.80 pul 6.2 mi SSO 6.9 mph - N/A   Muy nublado
3:00 AM 78.8 ° F - 71.6 ° F 78% 29.80 pul 6.2 mi SSO 6.9 mph - N/A   Muy nublado
4:00 AM 78.8 ° F - 71.6 ° F 78% 29.80 pul 6.2 mi SSO 5.8 mph - N/A   Muy nublado
5:00 AM 78.8 ° F - 71.6 ° F 78% 29.80 pul 6.2 mi Norte 4.6 mph - N/A   Muy nublado
6:00 AM 77.0 ° F - 73.4 ° F 89% 29.83 pul 6.2 mi Norte 3.5 mph - N/A   Muy nublado
7:00 AM 78 ° F - 74 ° F 84% 29.86 pul 6 mi NNE 3.5 mph - -   Bruma
7:00 AM 78.8 ° F - 73.4 ° F 83% 29.83 pul 6.2 mi NNE 3.5 mph - N/A   Nublado
8:00 AM 78.8 ° F - 73.4 ° F 83% 29.86 pul 6.2 mi NNE 5.8 mph - N/A   Nublado
9:00 AM 78.8 ° F - 73.4 ° F 83% 29.89 pul 6.2 mi NE 6.9 mph - N/A   Nublado
10:00 AM 81 ° F - 73 ° F 72% 29.90 pul 9 mi ENE 4.6 mph - -   Bruma
10:00 AM 80.6 ° F 85.4 ° F 73.4 ° F 79% 29.89 pul 6.2 mi ENE 4.6 mph - N/A   Muy nublado
11:00 AM 84.2 ° F 90.9 ° F 73.4 ° F 70% 29.86 pul 6.2 mi ESE 4.6 mph - N/A   Nubes dispersas
12:00 PM 86.0 ° F 93.4 ° F 73.4 ° F 66% 29.83 pul 6.2 mi SE 3.5 mph - N/A   Nubes dispersas
1:00 PM 87 ° F - 74 ° F 57% 29.81 pul 9 mi SE 4.6 mph - -   Bruma
1:00 PM 87.8 ° F 95.6 ° F 73.4 ° F 62% 29.80 pul 6.2 mi SE 4.6 mph - N/A   Nubes dispersas
2:00 PM 89.6 ° F 99.8 ° F 75.2 ° F 62% 29.77 pul 6.2 mi ESE 3.5 mph - N/A   Nubes dispersas
3:00 PM 89.6 ° F 98.2 ° F 73.4 ° F 59% 29.74 pul 6.2 mi SSE 2.3 mph - N/A   Nubes dispersas
4:00 PM 89 ° F - 73 ° F 50% 29.73 pul 9 mi ESE 3.5 mph - -   Bruma
4:00 PM 89.6 ° F 98.2 ° F 73.4 ° F 59% 29.71 pul 6.2 mi ESE 3.5 mph - N/A   Nubes dispersas
5:00 PM 89.6 ° F 96.2 ° F 71.6 ° F 55% 29.71 pul 6.2 mi SE 3.5 mph - N/A   Muy nublado
6:00 PM 87.8 ° F 95.6 ° F 73.4 ° F 62% 29.71 pul 6.2 mi ESE 3.5 mph - N/A   Muy nublado
7:00 PM 87 ° F - 73 ° F 55% 29.76 pul 9 mi SSE 4.6 mph - -   Parcialmente nublado
7:00 PM 86.0 ° F 93.4 ° F 73.4 ° F 66% 29.74 pul 6.2 mi SSE 4.6 mph - N/A   Muy nublado
8:00 PM 86.0 ° F 93.4 ° F 73.4 ° F 66% 29.77 pul 6.2 mi OSO 9.2 mph - N/A   Muy nublado
9:00 PM 84.2 ° F 88.4 ° F 69.8 ° F 62% 29.80 pul 6.2 mi OSO 8.1 mph - N/A   Muy nublado
10:00 PM 82.4 ° F 86.3 ° F 69.8 ° F 66% 29.83 pul 6.2 mi SSO 8.1 mph - N/A   Muy nublado
11:00 PM 82.4 ° F 86.3 ° F 69.8 ° F 66% 29.83 pul - SO 6.9 mph - N/A   Despejado